DW1482 Weather Reports


Display with metric or nautical units.
time (UTC)temp
F
wind
direction
speed
MPH
gust
MPH
rain 1hr
in
rain 24hr
in
rain mn
in
humidity
%
barometer
mb
20260506040028 35 44 1.0 3.0 0.00 0.00 0.00 58 1016.1
20260506034526 35 44 1.0 3.0 0.00 0.00 0.00 59 1015.8
20260506033019 36 44 0.0 2.0 0.00 0.00 0.00 57 1015.7
20260506031528 37 44 0.0 3.0 0.00 0.00 0.00 55 1015.6
20260506030026 38 44 0.0 3.0 0.00 0.00 0.00 53 1015.3
20260506024537 39 44 2.0 6.0 0.00 0.00 0.00 51 1015.0
20260506023020 40 44 2.0 8.0 0.00 0.00 0.00 50 1014.8
20260506021506 41 40 4.0 9.0 0.00 0.00 0.00 49 1014.6
20260506020010 42 33 2.0 9.0 0.00 0.00 0.00 47 1014.4
20260506014516 43 44 4.0 11.0 0.00 0.00 0.00 45 1014.2
20260506013027 44 45 3.0 9.0 0.00 0.00 0.00 44 1014.0
20260506011503 44 32 5.0 11.0 0.00 0.00 0.00 43 1014.1
20260506010010 44 39 4.0 10.0 0.00 0.00 0.00 43 1013.9
20260506004516 45 24 5.0 11.0 0.00 0.00 0.00 42 1013.8
20260506003022 45 52 6.0 14.0 0.00 0.00 0.00 42 1013.8
20260506001508 45 57 4.0 12.0 0.00 0.00 0.00 40 1013.7
20260506000011 46 36 6.0 14.0 0.00 0.00 0.00 40 1013.5
20260505234536 46 24 6.0 13.0 0.00 0.00 0.00 38 1013.5
20260505233021 47 339 6.0 15.0 0.00 0.00 0.00 38 1013.4
20260505231529 47 19 7.0 12.0 0.00 0.00 0.00 37 1013.3
20260505230023 47 355 2.0 13.0 0.00 0.00 0.00 38 1013.3
20260505224534 47 325 2.0 9.0 0.00 0.00 0.00 40 1013.3
20260505223026 47 26 3.0 11.0 0.00 0.00 0.00 38 1013.3
20260505221526 46 307 2.0 14.0 0.00 0.00 0.00 39 1013.5
20260505220016 46 10 3.0 14.0 0.00 0.00 0.00 38 1013.4
20260505214522 46 54 8.0 13.0 0.00 0.00 0.00 38 1013.4
20260505213027 46 14 1.0 11.0 0.00 0.00 0.00 38 1013.6
20260505211529 46 5 2.0 13.0 0.00 0.00 0.00 38 1013.6
20260505210016 46 17 2.0 12.0 0.00 0.00 0.00 38 1013.5
20260505204523 46 345 1.0 12.0 0.00 0.00 0.00 38 1013.7
20260505203026 46 5 7.0 13.0 0.00 0.00 0.00 38 1013.7
20260505201531 47 22 5.0 11.0 0.00 0.00 0.00 38 1013.5
20260505200018 46 11 2.0 15.0 0.00 0.00 0.00 39 1013.4
20260505194526 46 300 2.0 15.0 0.00 0.00 0.00 40 1013.4
20260505193027 46 360 3.0 12.0 0.00 0.00 0.00 40 1013.4
20260505191527 46 29 3.0 9.0 0.00 0.00 0.00 40 1013.4
20260505190016 45 11 2.0 10.0 0.00 0.00 0.00 41 1013.4
20260505184531 44 349 1.0 10.0 0.00 0.00 0.00 43 1013.5
20260505183025 45 5 5.0 10.0 0.00 0.00 0.00 40 1013.4
20260505181526 45 43 3.0 10.0 0.00 0.00 0.00 40 1013.5
20260505180040 45 30 4.0 15.0 0.00 0.00 0.00 40 1013.4
20260505174529 45 355 8.0 16.0 0.00 0.00 0.00 39 1013.2
20260505173028 45 5 9.0 15.0 0.00 0.00 0.00 38 1013.1
20260505171513 45 51 8.0 19.0 0.00 0.00 0.00 39 1013.2
20260505170023 45 12 4.0 16.0 0.00 0.00 0.00 39 1013.1
20260505164524 45 11 3.0 15.0 0.00 0.00 0.00 40 1013.0
20260505163016 45 342 6.0 16.0 0.00 0.00 0.00 41 1012.7
20260505161516 45 35 4.0 16.0 0.00 0.00 0.00 41 1012.5
20260505153012 46 220 4.0 16.0 0.00 0.00 0.00 38 1012.5
20260505151516 48 295 5.0 19.0 0.00 0.00 0.00 36 1012.5
20260505124512 35 350 1.0 7.0 0.00 0.00 0.00 67 1011.8
20260505123004 33 351 0.0 5.0 0.00 0.00 0.00 70 1011.6
20260505121508 31 266 1.0 8.0 0.00 0.00 0.00 71 1011.4
20260505120007 31 17 0.0 8.0 0.00 0.00 0.00 72 1011.3
20260505114512 30 42 2.0 7.0 0.00 0.00 0.00 71 1011.1
20260505113019 30 340 2.0 6.0 0.00 0.00 0.00 71 1010.9
20260505111505 30 318 3.0 10.0 0.00 0.00 0.00 71 1010.9
20260505101506 31 328 1.0 8.0 0.00 0.00 0.00 70 1010.9
20260505100018 32 323 1.0 9.0 0.00 0.00 0.00 70 1010.9
20260505094516 32 338 2.0 7.0 0.00 0.00 0.00 70 1010.9
20260505093028 33 360 1.0 4.0 0.00 0.00 0.00 68 1010.7
20260505091513 34 311 1.0 8.0 0.00 0.00 0.00 67 1010.6
20260505090012 34 11 2.0 7.0 0.00 0.00 0.00 67 1010.6
20260505084522 34 340 1.0 5.0 0.00 0.00 0.00 66 1010.5
20260505083032 33 10 1.0 4.0 0.00 0.00 0.00 67 1010.4
20260505081507 33 17 2.0 10.0 0.00 0.00 0.00 67 1010.3
20260505080014 33 318 0.0 5.0 0.00 0.00 0.00 66 1010.2
20260505074520 34 284 0.0 6.0 0.00 0.00 0.00 65 1009.9
20260505073026 34 352 1.0 4.0 0.00 0.00 0.00 65 1010.1
20260505071537 34 352 1.0 6.0 0.00 0.00 0.00 64 1010.0
20260505070016 35 351 0.0 5.0 0.00 0.00 0.00 63 1010.1
20260505064518 36 345 0.0 5.0 0.00 0.00 0.00 61 1010.1
20260505063041 37 360 2.0 6.0 0.00 0.00 0.00 59 1010.0
20260505061533 38 5 1.0 7.0 0.00 0.00 0.00 58 1010.0
20260505060014 38 35 1.0 6.0 0.00 0.00 0.00 57 1010.0
20260505054527 38 355 1.0 5.0 0.00 0.00 0.00 56 1009.8
20260505053026 39 360 0.0 4.0 0.00 0.00 0.00 55 1009.7
20260505051517 40 355 2.0 9.0 0.00 0.00 0.00 53 1009.7
20260505041512 42 15 0.0 3.0 0.00 0.00 0.00 49 1009.5